KL-ALPHA A

Last updated on Wed Dec 18 2019 00:02:04 GMT+0000 (Coordinated Universal Time)

1 44785U 19077A 19350.76270577 -.00000033 00000-0 -65660-4 0 9996 2 44785 88.9158 124.8684 0010361 180.9687 179.1449 13.55758752 3985
UTC large
Height (km)
Speed (km/s)
/
Latitude / Longitude
Inclination (degrees)
Orbital Period (minutes)
Azimuth
Elevation
Range (km)
Doppler Factor

Next 0 passes for location: London (51.5072 / 0.1276)

Sorry there are no passes over London.